Regional Weather Roundup
Issued by NWS

Home | Current Version | Previous Version | Graphics & Text | Print | Product List | Glossary Off
Versions: 1 2 3 4 5 6 7 8 9 10 11 12 13 14 15 16 17 18 19 20 21 22 23 24 25 26 27 28 29 30 31 32 33 34 35 36 37 38 39 40 41 42 43 44 45 46 47 48 49 50

000
ASUS43 KDMX 032301
RWRIA

WEATHER ROUNDUP FOR IOWA
NATIONAL WEATHER SERVICE DES MOINES IA
500 PM CST SAT DEC 03 2016

NOTE: "FAIR" INDICATES FEW OR NO CLOUDS BELOW 12,000 FEET WITH NO
SIGNIFICANT WEATHER AND/OR OBSTRUCTIONS TO VISIBILITY.

* - THESE STATIONS ARE NOT NWS STATIONS...THUS NOT UNDER NWS
QUALITY CONTROL.  THEY ALSO DO NOT REPORT WEATHER SUCH
AS PRECIPITATION OR FOG.

IAZ001>003-012>014-020>022-031>034-043>046-040000-
   NORTHWEST IOWA

CITY           SKY/WX    TMP DP  RH WIND       PRES   REMARKS
CARROLL *      MIX PCPN  34  34 100 SE7       30.18F WCI  28
CHEROKEE *     LGT SNOW  32  32 100 S9        30.17S WCI  25
DENISON *      LGT SNOW  32  32 100 CALM      30.15F
LE MARS *      MIX PCPN  34  32  93 S9G18     30.15F WCI  26
ORANGE CITY *  LGT SNOW  34  34 100 S10       30.12F WCI  26
SHELDON *      MIX PCPN  34  34 100 S12G18    30.13S WCI  25
SIOUX CITY     LGT SNOW  34  32  92 SE12      30.15F VSB 1   WCI  25
SPENCER        CLOUDY    34  33  96 S17       30.16F FOG     WCI  23
STORM LAKE *   LGT SNOW  32  32 100 S12       30.16F VSB 3/4 WCI  23
$$

IAZ055>058-069>071-079>083-090>094-040000-
   SOUTHWEST IOWA

CITY           SKY/WX    TMP DP  RH WIND       PRES   REMARKS
ATLANTIC *     LGT SNOW  32  32 100 CALM      30.18F VSB 1
AUDUBON *      LGT SNOW  34  30  86 E3        30.18F
CLARINDA *       N/A     37  36  93 NE6       30.17F WCI  33
COUNCIL BLFS * LGT SNOW  32  32 100 E8        30.16F VSB 1   WCI  25
CRESTON *      CLOUDY    37  32  81 NE6       30.19F WCI  33
HARLAN  *      LGT SNOW  32  32 100 SE6       30.21F WCI  26
LAMONI         CLOUDY    41  33  73 E5        30.17F
RED OAK *      MIX PCPN  34  34 100 NE7       30.17F WCI  28
SHENANDOAH *   MIX PCPN  36  36 100 NE7       30.16F WCI  30
$$

IAZ047>049-059>061-072>074-084-040000-
   CENTRAL IOWA

CITY           SKY/WX    TMP DP  RH WIND       PRES   REMARKS
AMES           LGT RAIN  37  34  89 S8        30.23F WCI  31
ANKENY *       CLOUDY    37  36  93 S6        30.24F WCI  33
BOONE *        CLOUDY    36  34  93 S9        30.21S WCI  29
CHARITON *       N/A     39  32  75 E8        30.19F WCI  34
DES MOINES     LGT RAIN  40  32  73 E5        30.22F
GRINNELL*      CLOUDY    37  31  79 SE3       30.24S
KNOXVILLE *    CLOUDY    39  30  70 CALM      30.21F
MARSHALLTOWN   CLOUDY    37  31  78 S5        30.23S WCI  33
NEWTON *       CLOUDY    37  32  81 SE6       30.23S WCI  33
PELLA *        CLOUDY    39  32  75 CALM      30.24F
PERRY *        LGT RAIN  35  35  98 SE5       30.22F WCI  31
$$

IAZ004>006-015-016-023>025-035-036-040000-
   NORTH CENTRAL IOWA

CITY           SKY/WX    TMP DP  RH WIND       PRES   REMARKS
ALGONA *       MIX PCPN  34  34 100 S15       30.19F WCI  24
CLARION *      CLOUDY    36  36 100 S8        30.21F WCI  29
ESTHERVILLE    CLOUDY    33  33 100 S12       30.16F WCI  24
FORT DODGE *   CLOUDY    34  28  80 S5        30.22F WCI  30
MASON CITY     FLURRIES  34  31  88 S8        30.23F WCI  27
WEBSTER CITY * LGT SNOW  34  34 100 S6        30.20F WCI  29
IOWA FALLS *   LGT RAIN  38  32  79 S6        30.23F WCI  33
$$

IAZ007>011-017>019-026>030-037>042-050>054-066-040000-
   NORTHEAST IOWA

CITY           SKY/WX    TMP DP  RH WIND       PRES   REMARKS
CEDAR RAPIDS   CLOUDY    36  30  79 SE3       30.24F
CHARLES CITY * CLOUDY    36  30  80 S7        30.24F WCI  30
CLINTON *      CLOUDY    35  28  75 S6        30.29F WCI  30
DECORAH *      CLOUDY    32  25  74 CALM      30.24S
DUBUQUE        MOCLDY    34  27  75 CALM      30.26F
MONTICELLO *   CLOUDY    37  30  75 CALM      30.25F
OELWEIN *      CLOUDY    36  30  80 SW5       30.25F WCI  32
WATERLOO       CLOUDY    37  28  70 CALM      30.24F
$$

IAZ064-065-067-068-078-040000-
   EAST CENTRAL IOWA

CITY           SKY/WX    TMP DP  RH WIND       PRES   REMARKS
DAVENPORT      PTCLDY    35  26  69 CALM      30.28F
IOWA CITY      CLOUDY    38  28  67 E5        30.28S WCI  34
MUSCATINE *    MOCLDY    37  28  70 SE5       30.29S WCI  34
QUAD CITIES    PTCLDY    35  27  72 SE6       30.28F WCI  30
$$

IAZ062-063-075>077-085>089-095>099-040000-
   SOUTHEAST IOWA

CITY           SKY/WX    TMP DP  RH WIND       PRES   REMARKS
BURLINGTON     PTCLDY    37  30  75 E8        30.26F WCI  31
FAIRFIELD *    CLOUDY    37  30  75 SE6       30.24F WCI  33
FORT MADISON * CLOUDY    37  30  75 E5        30.26F WCI  34
KEOKUK *       PTCLDY    39  32  75 E10       30.25S WCI  32
OSKALOOSA *      N/A     38  31  76 SE6       30.24F WCI  34
CENTERVILLE *  MOCLDY    39  32  75 CALM      30.22F
OTTUMWA        CLOUDY    39  30  70 SE7       30.24S WCI  34
WASHINGTON *   CLOUDY    37  30  75 SE6       30.27S WCI  33
$$

ABBREVIATIONS USED IN REMARKS
   TC - TEMPERATURES IN CELSIUS
  WCI - WIND CHILL INDEX
   HX - HEAT INDEX
  VSB - VISIBILITY
$$





USA.gov is the U.S. government's official web portal to all federal, state and local government web resources and services.